Theta_e
298 293 291 294 298 296 296 295 294 295 295 297 300 300 303 305 301 303 303 304 305 305 307 307 306 307 306 307 306 303 300 299 299 301 301 302 302 305 306 307 306 306 304 303
293 289 295 297 297 295 295 295 293 292 292 294 295 295 300 301 302 305 305 306 305 306 306 305 305 306 305 305 305 304 302 299 298 298 299 300 301 302 304 305 305 305 305 303
289 290 296 295 294 294 293 294 292 292 290 290 290 293 295 298 299 300 302 305 306 306 306 306 305 305 305 305 305 304 303 301 299 299 298 297 298 298 299 301 302 303 304 304
289 291 293 294 293 295 290 294 293 290 291 288 289 287 293 294 294 295 298 299 301 304 305 307 306 305 305 306 306 305 304 302 300 298 297 296 296 296 298 300 301 302 303 303
287 289 291 292 293 296 292 293 292 290 289 289 288 287 292 291 292 292 294 295 295 297 300 304 305 307 307 307 306 305 304 302 300 298 298 297 297 298 299 298 298 300 301 302
287 290 292 293 291 296 292 291 290 289 289 284 287 287 290 291 290 293 294 296 295 296 296 297 300 304 306 307 306 305 303 301 300 298 298 297 297 297 296 296 296 297 298 299
286 287 289 291 290 291 292 291 284 282 282 281 282 283 290 292 292 292 292 294 294 295 296 297 297 298 302 304 305 304 303 301 300 298 298 298 298 298 297 297 296 296 296 296
281 279 287 290 291 290 290 292 285 278 278 281 281 281 288 290 291 292 293 293 295 296 296 297 297 299 300 301 303 303 301 301 300 299 298 298 298 298 298 298 297 296 297 297
282 281 287 288 289 292 289 287 289 281 276 280 283 286 289 291 291 292 292 294 295 296 297 298 298 298 299 300 301 302 301 300 300 299 299 298 298 297 297 297 297 297 297 296
285 280 285 287 289 289 288 291 283 284 279 278 280 282 286 288 290 291 292 294 295 296 297 298 299 299 299 300 301 301 301 300 300 299 299 298 298 297 297 297 296 296 296 296
286 286 282 286 286 287 286 286 285 286 284 280 278 284 292 291 291 291 292 293 295 296 295 296 298 299 299 299 299 299 299 299 299 298 298 297 297 297 296 296 296 296 296 295
287 285 281 283 286 287 286 287 288 283 279 281 281 283 288 293 292 293 292 292 293 294 295 295 295 297 299 299 299 299 299 298 298 298 297 297 297 297 296 296 296 297 295 295
288 284 279 280 284 285 284 285 288 285 285 280 282 283 287 289 288 290 291 293 293 293 295 296 296 296 296 298 299 299 299 298 298 297 297 297 296 296 295 296 296 296 295 295
293 285 284 280 282 286 282 284 285 287 282 281 283 283 285 287 288 290 291 292 292 293 294 295 296 296 296 296 297 298 298 299 299 297 297 297 297 296 296 296 295 295 295 294
290 283 283 284 283 284 285 285 284 285 287 284 286 285 289 290 290 293 292 292 293 293 294 294 294 295 296 296 297 297 298 298 298 297 297 297 297 297 296 295 295 295 294 293
289 284 284 282 286 287 284 285 286 286 287 286 284 285 288 292 292 291 292 292 293 292 293 293 293 293 294 294 295 296 297 297 297 297 297 297 296 296 295 294 294 293 292 292
287 285 283 281 284 286 282 285 284 286 288 288 283 288 288 288 289 290 292 293 293 292 292 292 293 293 293 293 294 295 296 297 298 297 297 296 296 295 295 294 293 292 292 292
286 284 285 281 284 275 287 288 288 286 288 288 288 289 290 290 291 292 294 294 292 292 292 292 292 293 293 293 293 294 295 296 296 296 296 296 296 295 295 294 293 293 293 292
290 287 281 280 279 283 286 286 285 284 286 289 289 289 289 290 292 291 293 294 293 292 292 292 292 292 292 291 292 292 293 294 294 293 293 294 295 294 294 293 293 293 292 291
289 289 286 277 279 277 286 287 291 292 284 292 291 291 289 290 288 291 292 292 291 292 291 291 291 291 290 289 289 290 289 291 289 290 290 291 293 293 293 294 292 292 291 289
282 283 283 280 281 284 288 288 290 284 286 289 291 291 291 290 292 292 292 290 291 290 290 289 289 288 287 288 289 288 289 288 288 287 288 289 290 290 292 292 291 290 289 287
281 281 280 279 279 279 287 287 287 289 289 289 289 290 291 289 289 289 289 288 289 289 288 287 287 286 287 288 289 288 288 289 288 288 287 286 286 287 288 288 289 287 287 286
280 286 282 285 285 287 289 288 290 290 290 289 290 291 290 289 289 289 288 288 288 287 286 285 286 286 287 288 288 287 288 287 287 285 284 285 285 285 285 286 286 286 285 285
282 284 284 284 287 287 288 288 289 290 289 290 291 291 291 289 289 288 288 288 287 286 284 286 286 286 286 286 286 286 286 286 285 285 285 285 285 283 285 286 286 286 285 284
285 284 282 282 284 286 287 289 290 288 288 288 288 289 289 289 288 288 287 286 285 285 285 285 285 285 285 285 286 286 286 286 285 285 286 286 286 285 285 285 284 285 285 285
284 284 285 286 287 290 289 291 289 288 288 288 287 286 287 289 288 287 285 285 284 285 284 284 284 285 285 285 285 285 286 285 285 286 286 285 285 285 285 284 285 287 286 286
Wind_Speed
6 12 18 21 16 2 8 8 7 3 2 5 12 15 14 9 8 11 11 12 14 15 12 13 15 16 15 15 16 16 16 15 12 10 10 9 9 9 8 8 10 10 9 10
7 19 15 11 10 6 7 9 6 2 1 3 4 14 14 12 11 17 17 15 15 13 14 14 16 17 19 18 18 18 18 17 15 11 10 6 9 8 8 8 9 11 11 11
11 2 12 12 10 11 4 7 5 1 3 1 5 13 10 7 10 10 13 14 12 15 15 15 17 20 18 20 21 20 19 18 16 15 9 6 5 3 7 9 9 11 12 12
8 2 16 13 15 16 10 6 7 7 5 3 2 5 4 2 5 7 10 11 14 16 13 12 16 18 19 21 19 19 18 18 16 17 14 16 10 9 9 9 9 10 13 13
7 9 14 17 19 13 5 9 7 3 3 2 3 5 3 1 2 4 5 2 2 7 12 14 15 17 19 17 18 18 18 18 18 17 16 12 13 9 6 7 9 11 11 13
2 1 4 7 3 7 13 10 6 3 2 4 4 5 4 2 2 4 5 7 6 5 5 6 9 11 14 14 15 16 19 18 18 17 19 18 16 13 9 8 7 7 8 9
3 3 1 2 8 6 6 15 4 4 5 4 1 4 6 6 9 8 9 7 4 1 3 4 5 8 12 14 15 15 18 18 18 18 18 18 17 15 13 11 9 9 8 8
11 8 11 6 4 11 16 15 6 8 6 5 2 7 2 2 3 2 2 3 3 6 4 4 3 4 8 11 13 15 16 16 17 17 18 15 15 10 10 11 9 9 9 8
11 7 2 1 2 7 10 11 4 7 1 2 5 4 4 3 5 5 4 5 7 7 7 8 5 2 4 8 10 12 14 14 15 16 14 16 14 15 12 13 12 9 10 8
8 6 0 2 2 1 5 10 5 1 6 5 4 4 5 11 12 5 5 7 7 7 8 7 7 5 2 3 6 8 10 12 13 14 14 13 14 15 14 11 13 13 11 11
6 3 4 4 8 13 5 8 2 3 2 4 4 4 8 18 15 11 5 4 6 7 7 7 7 6 4 3 4 5 7 9 10 11 12 13 12 13 12 13 13 13 12 12
5 5 5 9 2 2 2 7 11 7 6 2 1 0 1 13 13 9 6 5 4 5 6 6 7 7 6 4 3 4 5 7 8 9 10 12 11 12 13 14 14 13 13 12
9 3 6 4 4 2 8 6 11 4 2 8 4 4 3 7 7 4 5 3 4 4 7 7 8 8 8 6 4 1 3 5 6 7 8 9 10 11 13 13 13 13 13 13
7 4 5 9 3 7 8 10 8 11 5 7 6 7 6 12 12 7 4 3 3 4 6 7 7 8 7 7 6 5 2 3 5 6 7 9 10 11 11 11 12 12 12 13
4 13 2 4 1 1 6 14 16 20 15 13 8 9 17 19 14 11 7 5 8 6 6 7 7 6 7 7 7 7 6 4 3 5 6 8 8 9 9 10 11 11 12 12
2 6 4 2 4 3 2 10 17 17 13 10 1 6 1 11 11 9 7 8 8 7 6 5 5 6 7 8 8 7 7 7 4 3 5 5 7 8 9 9 10 10 11 11
6 6 5 8 2 2 4 12 15 15 11 13 13 5 9 8 10 11 9 9 8 7 6 5 5 5 6 7 8 9 9 8 6 4 4 5 6 7 8 8 9 10 11 11
13 12 3 2 3 8 5 1 8 17 15 14 6 9 10 9 6 6 8 9 8 6 5 4 4 5 6 7 8 8 7 7 7 7 7 6 6 7 7 7 9 9 9 10
5 9 5 5 10 3 12 9 9 11 13 16 18 9 9 14 11 5 6 6 7 6 4 4 4 4 5 7 8 8 8 8 8 9 9 9 8 8 7 7 8 8 7 8
7 4 4 4 6 13 5 3 8 7 10 17 20 19 16 13 8 8 10 8 6 5 4 4 5 5 6 9 9 9 9 10 11 11 11 10 9 8 8 7 7 6 7 7
7 2 8 4 4 6 6 7 5 13 5 4 19 14 20 12 1 13 12 7 5 4 5 4 5 5 6 7 7 7 7 9 10 10 10 9 9 9 8 7 5 5 5 5
10 9 5 4 4 10 8 7 11 1 2 5 9 9 12 13 13 13 11 9 7 5 4 6 5 5 4 6 7 7 8 8 8 9 8 8 7 6 5 5 5 4 4 4
5 7 9 11 8 2 11 2 1 3 5 5 9 13 17 15 10 11 10 9 6 5 5 4 4 3 4 4 4 6 7 8 8 6 6 6 6 5 5 5 4 4 3 3
3 2 4 4 7 4 9 1 1 3 4 8 12 13 11 13 12 10 8 7 6 5 4 3 4 4 4 3 3 3 6 6 6 6 6 6 5 7 5 4 3 3 3 3
3 11 7 1 1 5 2 6 8 8 10 11 6 6 12 13 10 8 6 5 5 4 3 3 3 3 4 4 4 3 4 4 4 4 4 5 5 5 6 4 4 5 4 4
6 7 8 6 12 5 13 13 11 12 11 11 11 7 5 7 10 7 6 5 4 3 2 3 3 3 4 4 4 5 5 5 5 5 5 5 5 5 5 6 6 4 6 9
Wind_Direction
194 197 201 194 194 178 173 196 200 176 95 219 239 258 253 230 232 241 227 225 224 221 213 202 198 199 198 195 194 194 194 193 188 187 188 198 204 206 211 215 211 208 209 204
177 218 203 180 159 135 176 182 194 112 86 232 264 268 262 243 236 237 237 233 230 222 208 202 198 197 200 198 197 195 201 193 194 189 194 203 196 214 212 210 211 211 208 207
201 240 162 167 173 172 189 205 176 150 143 128 296 270 237 226 239 244 246 250 245 229 219 207 201 199 203 203 198 200 200 196 196 195 185 182 168 190 204 211 211 210 211 209
231 156 184 175 184 190 196 188 146 137 187 236 312 284 261 211 262 240 250 236 234 229 233 219 207 203 203 210 202 199 198 197 198 191 195 201 202 203 208 208 208 206 209 212
178 172 174 184 191 189 190 145 138 122 114 278 190 255 259 37 162 109 93 67 262 257 245 226 217 212 208 207 200 200 197 198 195 194 204 203 212 216 200 201 205 209 208 215
102 354 198 197 80 185 139 114 80 85 150 237 194 239 270 216 86 291 283 320 309 275 241 247 238 227 216 206 199 197 200 201 196 199 206 210 212 210 206 204 203 206 210 210
142 168 200 186 110 131 180 163 137 197 202 232 88 206 271 290 308 274 305 327 355 351 320 307 240 216 214 205 197 197 201 204 199 202 209 213 219 216 218 211 209 202 205 211
174 197 182 164 205 179 179 185 167 188 192 177 123 223 217 323 352 344 314 334 36 47 25 15 343 229 209 202 197 199 202 207 200 203 212 215 218 218 219 217 213 215 215 215
179 194 83 181 147 183 178 204 105 108 19 188 192 235 292 137 96 102 68 74 61 49 36 30 27 44 189 192 198 202 204 208 205 209 212 215 215 218 219 220 220 223 223 219
182 148 171 131 176 111 234 138 160 124 159 224 184 249 177 169 158 153 80 70 60 54 51 41 37 39 79 181 193 198 208 212 212 215 216 218 217 220 224 222 224 225 227 220
151 108 142 171 212 180 153 186 163 141 210 181 151 224 174 166 161 147 113 58 52 51 37 37 40 44 53 101 164 192 205 212 214 215 219 223 224 225 226 229 231 231 231 223
163 106 149 189 53 328 2 210 192 195 194 242 306 8 137 153 153 145 122 94 40 25 37 43 48 48 50 56 105 188 203 219 226 224 223 225 228 223 226 230 234 232 233 227
177 147 111 150 206 164 218 189 210 107 88 188 154 159 58 119 139 141 115 94 38 31 45 53 52 51 49 46 45 54 215 230 227 223 226 231 233 231 235 238 238 235 235 234
113 125 191 198 206 132 195 192 207 203 198 149 219 151 188 188 178 179 150 141 117 83 60 62 56 51 44 40 36 31 7 249 235 226 232 240 241 241 242 243 241 238 234 235
140 197 119 28 74 156 219 188 190 206 203 208 181 194 190 193 191 180 148 139 140 111 78 60 50 44 41 35 31 24 20 2 256 238 241 248 252 249 247 243 240 239 235 233
36 150 124 121 10 63 179 207 202 213 209 227 186 223 269 156 143 154 159 156 138 121 97 72 45 39 32 23 17 11 12 2 340 276 265 265 258 254 251 251 246 244 241 237
152 148 154 199 258 349 262 210 197 208 200 205 206 192 159 155 164 167 160 166 148 128 113 87 53 34 18 11 1 4 356 353 0 342 315 289 274 265 258 254 250 249 248 243
172 188 23 156 84 244 266 125 204 204 208 211 214 155 172 164 124 135 149 150 145 132 108 67 29 18 18 3 2 349 355 3 4 4 347 330 304 286 277 264 256 254 246 244
185 140 136 185 191 304 250 197 175 180 224 203 208 177 144 129 126 124 152 136 127 117 99 68 22 10 6 13 357 350 2 2 5 1 348 338 326 308 296 281 275 270 259 254
162 133 119 168 184 206 250 178 159 137 260 199 196 200 157 157 182 156 161 139 115 102 81 48 19 18 22 13 3 5 3 2 357 345 333 327 323 314 304 298 291 288 270 272
151 125 195 163 250 277 232 152 148 186 263 180 191 171 159 180 160 129 136 125 120 109 91 55 46 45 32 9 2 8 0 358 340 327 325 330 334 326 319 311 301 296 287 269
162 159 163 119 209 256 155 127 192 152 77 114 135 149 138 119 117 122 130 137 134 119 88 51 57 48 29 7 0 360 358 343 338 331 336 337 336 337 328 321 321 314 301 288
166 184 169 199 202 65 190 357 93 108 124 123 116 123 127 127 128 137 140 139 127 108 84 76 61 48 23 355 350 348 345 337 333 326 329 332 326 333 337 332 334 323 318 296
229 183 174 138 193 212 187 66 104 104 110 114 126 131 135 130 138 131 132 132 127 107 94 65 55 47 25 347 337 336 331 324 318 321 328 331 338 342 345 333 320 310 314 298
157 150 164 247 18 107 187 227 164 126 119 116 105 119 130 127 129 131 129 119 108 100 81 61 51 35 15 353 353 329 325 320 316 311 324 340 344 348 342 346 330 331 319 300
190 164 185 210 179 181 191 177 156 146 153 149 137 123 106 124 135 135 135 130 131 129 102 72 56 37 11 354 345 344 340 337 336 346 1 359 351 354 354 349 347 346 315 304